TFS1035 KMDW-KLGA

Flight info

Callsign TFS1035
Flight time 1h 36m
Altitude 37000
Route LEWKE ZIINE Q186 WEVEL ETG MIP4
Aircraft A321/M-SDE3FGHIRWY/LB1

Departure

Time 2026-05-06 18:35
Airport Chicago Midway International Airport (KMDW)

Arrival

Time 2026-05-06 20:11
Airport LaGuardia Airport (KLGA)
Time Latitude Longitude Altitude Speed Heading
2026-05-06 18:23 41.78940 -87.74239 629 ft 0 kts 108°
2026-05-06 18:29 41.78944 -87.74254 629 ft 4 kts 108°
2026-05-06 18:29 41.78952 -87.74288 634 ft 4 kts 108°
2026-05-06 18:29 41.78961 -87.74322 631 ft 4 kts 108°
2026-05-06 18:29 41.78970 -87.74357 632 ft 4 kts 109°
2026-05-06 18:30 41.78977 -87.74385 629 ft 4 kts 102°
2026-05-06 18:30 41.78977 -87.74419 630 ft 4 kts 68°
2026-05-06 18:30 41.78964 -87.74448 630 ft 2 kts 44°
2026-05-06 18:30 41.78960 -87.74453 635 ft 0 kts 44°
2026-05-06 18:33 41.78961 -87.74453 635 ft 1 kts 44°
2026-05-06 18:34 41.79020 -87.74377 630 ft 25 kts 44°
2026-05-06 18:34 41.79148 -87.74273 633 ft 17 kts 341°
2026-05-06 18:34 41.79153 -87.74363 631 ft 10 kts 230°
2026-05-06 18:34 41.79092 -87.74443 630 ft 26 kts 223°
2026-05-06 18:35 41.78702 -87.74939 629 ft 124 kts 223°
2026-05-06 18:35 41.77917 -87.75919 989 ft 166 kts 225°
2026-05-06 18:35 41.77005 -87.76893 2109 ft 170 kts 222°
2026-05-06 18:35 41.76079 -87.77872 3066 ft 165 kts 223°
2026-05-06 18:36 41.75078 -87.78500 3899 ft 160 kts 192°
2026-05-06 18:36 41.73995 -87.78253 4590 ft 162 kts 154°
2026-05-06 18:36 41.73194 -87.77195 5154 ft 168 kts 118°
2026-05-06 18:36 41.72981 -87.75591 5477 ft 188 kts 81°
2026-05-06 18:37 41.73170 -87.73758 5749 ft 210 kts 83°
2026-05-06 18:37 41.73285 -87.71708 5966 ft 232 kts 85°
2026-05-06 18:37 41.73373 -87.69448 6224 ft 255 kts 87°
2026-05-06 18:37 41.73463 -87.67001 6912 ft 266 kts 86°
2026-05-06 18:38 41.73560 -87.64512 7808 ft 270 kts 86°
2026-05-06 18:38 41.73666 -87.61978 8645 ft 276 kts 86°
2026-05-06 18:38 41.73782 -87.59378 9480 ft 283 kts 86°
2026-05-06 18:38 41.73905 -87.56704 9902 ft 290 kts 86°
2026-05-06 18:39 41.74031 -87.54032 10041 ft 295 kts 86°
2026-05-06 18:39 41.74165 -87.51175 10348 ft 319 kts 86°
2026-05-06 18:39 41.74309 -87.48101 10645 ft 343 kts 86°
2026-05-06 18:40 41.74619 -87.41471 11847 ft 365 kts 86°
2026-05-06 18:40 41.74779 -87.38037 12555 ft 374 kts 87°
2026-05-06 18:40 41.74940 -87.34520 13259 ft 382 kts 87°
2026-05-06 18:40 41.75101 -87.30938 13952 ft 388 kts 88°
2026-05-06 18:41 41.75259 -87.27310 14625 ft 394 kts 88°
2026-05-06 18:41 41.75421 -87.23626 15279 ft 399 kts 88°
2026-05-06 18:41 41.75592 -87.19883 15925 ft 405 kts 88°
2026-05-06 18:41 41.75767 -87.16095 16580 ft 411 kts 88°
2026-05-06 18:42 41.75941 -87.12251 17234 ft 416 kts 88°
2026-05-06 18:42 41.76112 -87.08355 17869 ft 422 kts 88°
2026-05-06 18:42 41.76271 -87.04403 18478 ft 428 kts 89°
2026-05-06 18:42 41.76369 -87.00400 19037 ft 432 kts 90°
2026-05-06 18:43 41.76417 -86.96357 19616 ft 437 kts 91°
2026-05-06 18:43 41.76439 -86.92271 20192 ft 440 kts 92°
2026-05-06 18:43 41.76455 -86.88157 20787 ft 444 kts 92°
2026-05-06 18:43 41.76479 -86.84007 21343 ft 448 kts 92°
2026-05-06 18:44 41.76514 -86.79819 21895 ft 452 kts 92°
2026-05-06 18:44 41.76556 -86.75589 22433 ft 456 kts 92°
2026-05-06 18:44 41.76605 -86.71322 22966 ft 460 kts 92°
2026-05-06 18:44 41.76657 -86.67013 23491 ft 465 kts 92°
2026-05-06 18:45 41.76706 -86.62666 23928 ft 469 kts 92°
2026-05-06 18:45 41.76752 -86.58274 24314 ft 474 kts 92°
2026-05-06 18:45 41.76794 -86.53837 24682 ft 479 kts 92°
2026-05-06 18:45 41.76835 -86.49357 25059 ft 484 kts 93°
2026-05-06 18:46 41.76872 -86.44886 25417 ft 489 kts 93°
2026-05-06 18:46 41.76906 -86.40311 25773 ft 494 kts 93°
2026-05-06 18:46 41.76938 -86.35689 26141 ft 499 kts 93°
2026-05-06 18:46 41.76970 -86.31022 26500 ft 504 kts 93°
2026-05-06 18:47 41.77006 -86.26309 26841 ft 509 kts 92°
2026-05-06 18:47 41.77055 -86.21548 27189 ft 514 kts 92°
2026-05-06 18:47 41.77112 -86.16734 27520 ft 519 kts 92°
2026-05-06 18:47 41.77173 -86.11876 27827 ft 524 kts 92°
2026-05-06 18:48 41.77231 -86.06977 28153 ft 529 kts 92°
2026-05-06 18:48 41.77288 -86.02025 28476 ft 534 kts 92°
2026-05-06 18:48 41.77342 -85.97029 28799 ft 538 kts 92°
2026-05-06 18:48 41.77391 -85.91995 29121 ft 543 kts 92°
2026-05-06 18:49 41.77433 -85.86915 29435 ft 547 kts 92°
2026-05-06 18:49 41.77469 -85.81796 29740 ft 552 kts 92°
2026-05-06 18:49 41.77502 -85.76637 30040 ft 556 kts 92°
2026-05-06 18:49 41.77534 -85.71441 30291 ft 560 kts 92°
2026-05-06 18:50 41.77564 -85.66209 30555 ft 564 kts 92°
2026-05-06 18:50 41.77597 -85.60942 30818 ft 567 kts 92°
2026-05-06 18:50 41.77631 -85.55639 31069 ft 571 kts 92°
2026-05-06 18:50 41.77668 -85.50310 31330 ft 574 kts 92°
2026-05-06 18:51 41.77702 -85.44948 31606 ft 577 kts 92°
2026-05-06 18:51 41.77730 -85.39570 31918 ft 578 kts 92°
2026-05-06 18:51 41.77751 -85.34167 32222 ft 581 kts 92°
2026-05-06 18:51 41.77764 -85.28828 32556 ft 582 kts 92°
2026-05-06 18:52 41.77772 -85.23398 32904 ft 583 kts 92°
2026-05-06 18:52 41.77779 -85.17961 33252 ft 585 kts 92°
2026-05-06 18:52 41.77792 -85.12511 33604 ft 586 kts 92°
2026-05-06 18:52 41.77810 -85.07045 33951 ft 587 kts 92°
2026-05-06 18:53 41.77825 -85.01577 34234 ft 588 kts 92°
2026-05-06 18:53 41.77837 -84.96102 34595 ft 587 kts 92°
2026-05-06 18:53 41.77846 -84.90656 35021 ft 584 kts 92°
2026-05-06 18:53 41.77851 -84.85230 35478 ft 580 kts 92°
2026-05-06 18:54 41.77851 -84.79840 35933 ft 577 kts 92°
2026-05-06 18:54 41.77848 -84.74484 36401 ft 573 kts 92°
2026-05-06 18:54 41.77846 -84.69159 36823 ft 571 kts 92°
2026-05-06 18:54 41.77839 -84.63858 36964 ft 568 kts 93°
2026-05-06 18:55 41.77828 -84.58595 37002 ft 563 kts 93°
2026-05-06 18:55 41.77799 -84.48150 37004 ft 560 kts 93°
2026-05-06 18:56 41.77760 -84.37727 37000 ft 559 kts 93°
2026-05-06 18:56 41.77717 -84.27312 36968 ft 559 kts 93°
2026-05-06 18:57 41.77673 -84.16879 36995 ft 560 kts 93°
2026-05-06 18:57 41.77607 -84.06431 36998 ft 561 kts 93°
2026-05-06 18:58 41.77531 -83.96050 37005 ft 561 kts 94°
2026-05-06 18:58 41.77441 -83.85596 36979 ft 561 kts 94°
2026-05-06 18:59 41.77350 -83.75139 36987 ft 562 kts 94°
2026-05-06 18:59 41.77251 -83.64674 36993 ft 562 kts 94°
2026-05-06 19:00 41.77045 -83.54220 36990 ft 559 kts 100°
2026-05-06 19:00 41.76057 -83.43919 36969 ft 558 kts 102°
2026-05-06 19:01 41.75050 -83.33607 36986 ft 559 kts 102°
2026-05-06 19:01 41.74050 -83.23284 36991 ft 559 kts 102°
2026-05-06 19:02 41.73031 -83.12972 36961 ft 559 kts 102°
2026-05-06 19:02 41.71990 -83.02656 36967 ft 559 kts 102°
2026-05-06 19:03 41.70949 -82.92335 36974 ft 560 kts 102°
2026-05-06 19:03 41.69895 -82.82012 36984 ft 560 kts 102°
2026-05-06 19:04 41.68834 -82.71680 36976 ft 560 kts 102°
2026-05-06 19:04 41.67761 -82.61356 36987 ft 560 kts 102°
2026-05-06 19:05 41.66682 -82.51035 37002 ft 560 kts 102°
2026-05-06 19:05 41.65597 -82.40726 37009 ft 560 kts 103°
2026-05-06 19:06 41.64507 -82.30492 36983 ft 560 kts 103°
2026-05-06 19:06 41.63402 -82.20189 36988 ft 560 kts 103°
2026-05-06 19:07 41.62294 -82.09895 36996 ft 560 kts 103°
2026-05-06 19:07 41.61169 -81.99595 36998 ft 560 kts 103°
2026-05-06 19:08 41.60024 -81.89291 37001 ft 560 kts 103°
2026-05-06 19:08 41.58874 -81.79004 37000 ft 560 kts 103°
2026-05-06 19:09 41.57721 -81.68713 37000 ft 560 kts 103°
2026-05-06 19:09 41.56556 -81.58418 36970 ft 561 kts 103°
2026-05-06 19:10 41.55379 -81.48123 36968 ft 561 kts 103°
2026-05-06 19:10 41.54217 -81.37814 36977 ft 562 kts 102°
2026-05-06 19:11 41.53243 -81.27512 36969 ft 564 kts 100°
2026-05-06 19:11 41.52376 -81.17106 36983 ft 564 kts 100°
2026-05-06 19:12 41.51460 -81.06711 36992 ft 564 kts 101°
2026-05-06 19:12 41.50476 -80.96326 36980 ft 564 kts 101°
2026-05-06 19:13 41.49472 -80.85961 36939 ft 564 kts 101°
2026-05-06 19:13 41.48477 -80.75587 36950 ft 564 kts 101°
2026-05-06 19:14 41.47479 -80.65208 36954 ft 564 kts 101°
2026-05-06 19:14 41.46472 -80.54833 36952 ft 564 kts 101°
2026-05-06 19:15 41.45455 -80.44464 36939 ft 564 kts 101°
2026-05-06 19:15 41.44425 -80.34105 36943 ft 564 kts 101°
2026-05-06 19:16 41.43389 -80.23746 36943 ft 564 kts 101°
2026-05-06 19:16 41.42340 -80.13388 36931 ft 564 kts 101°
2026-05-06 19:17 41.41299 -80.03034 36937 ft 564 kts 101°
2026-05-06 19:17 41.40306 -79.92678 36940 ft 564 kts 100°
2026-05-06 19:18 41.39322 -79.82323 36936 ft 563 kts 101°
2026-05-06 19:18 41.38305 -79.71984 36916 ft 563 kts 101°
2026-05-06 19:19 41.37266 -79.61654 36897 ft 563 kts 101°
2026-05-06 19:19 41.36217 -79.51339 36884 ft 562 kts 101°
2026-05-06 19:20 41.35343 -79.42764 36884 ft 562 kts 101°
2026-05-06 19:20 41.34110 -79.30784 36874 ft 562 kts 101°
2026-05-06 19:21 41.33045 -79.20483 36877 ft 562 kts 101°
2026-05-06 19:21 41.32145 -79.11859 36876 ft 562 kts 101°
2026-05-06 19:22 41.31079 -79.01644 36855 ft 561 kts 101°
2026-05-06 19:22 41.29997 -78.91380 36872 ft 560 kts 101°
2026-05-06 19:23 41.28894 -78.81123 36872 ft 560 kts 101°
2026-05-06 19:23 41.27784 -78.70874 36847 ft 560 kts 101°
2026-05-06 19:24 41.26670 -78.60646 36824 ft 553 kts 102°
2026-05-06 19:24 41.25582 -78.50670 36876 ft 542 kts 102°
2026-05-06 19:25 41.24482 -78.40785 36931 ft 540 kts 102°
2026-05-06 19:25 41.23374 -78.30911 36996 ft 540 kts 102°
2026-05-06 19:26 41.22264 -78.21030 37041 ft 541 kts 102°
2026-05-06 19:26 41.21141 -78.11165 37093 ft 540 kts 102°
2026-05-06 19:27 41.19933 -78.01303 36801 ft 543 kts 103°
2026-05-06 19:27 41.19306 -77.96377 36551 ft 540 kts 103°
2026-05-06 19:27 41.18678 -77.91468 36323 ft 540 kts 103°
2026-05-06 19:27 41.18049 -77.86552 36092 ft 540 kts 103°
2026-05-06 19:28 41.17433 -77.81702 35873 ft 540 kts 103°
2026-05-06 19:28 41.16813 -77.76788 35645 ft 540 kts 103°
2026-05-06 19:28 41.16195 -77.71871 35425 ft 541 kts 103°
2026-05-06 19:28 41.15575 -77.66947 35205 ft 541 kts 103°
2026-05-06 19:29 41.14952 -77.62030 34983 ft 541 kts 103°
2026-05-06 19:29 41.14325 -77.57104 34743 ft 541 kts 103°
2026-05-06 19:29 41.13694 -77.52178 34529 ft 541 kts 103°
2026-05-06 19:29 41.13060 -77.47259 34317 ft 542 kts 103°
2026-05-06 19:30 41.12420 -77.42334 34102 ft 542 kts 103°
2026-05-06 19:30 41.11779 -77.37414 33886 ft 542 kts 103°
2026-05-06 19:30 41.11138 -77.32490 33656 ft 542 kts 103°
2026-05-06 19:30 41.10497 -77.27562 33415 ft 542 kts 104°
2026-05-06 19:31 41.09853 -77.22640 33147 ft 542 kts 104°
2026-05-06 19:31 41.09208 -77.17729 32902 ft 540 kts 104°
2026-05-06 19:31 41.07921 -77.07954 32809 ft 539 kts 104°
2026-05-06 19:32 41.06601 -76.98123 31781 ft 554 kts 104°
2026-05-06 19:32 41.05918 -76.93068 30930 ft 560 kts 104°
2026-05-06 19:32 41.05239 -76.88001 30087 ft 552 kts 104°
2026-05-06 19:33 41.04581 -76.83045 29190 ft 543 kts 104°
2026-05-06 19:33 41.03929 -76.78156 28272 ft 535 kts 104°
2026-05-06 19:33 41.03280 -76.73340 27385 ft 527 kts 104°
2026-05-06 19:33 41.02633 -76.68600 26521 ft 519 kts 105°
2026-05-06 19:34 41.01761 -76.64028 25685 ft 506 kts 113°
2026-05-06 19:34 41.00695 -76.59626 24878 ft 498 kts 113°
2026-05-06 19:34 40.99663 -76.55347 24096 ft 491 kts 112°
2026-05-06 19:34 40.98639 -76.51078 23316 ft 483 kts 112°
2026-05-06 19:35 40.97617 -76.46811 22356 ft 475 kts 112°
2026-05-06 19:35 40.96628 -76.42679 21464 ft 468 kts 112°
2026-05-06 19:35 40.95664 -76.38663 20616 ft 461 kts 112°
2026-05-06 19:35 40.94698 -76.34666 19799 ft 453 kts 112°
2026-05-06 19:36 40.93740 -76.30731 19148 ft 443 kts 112°
2026-05-06 19:36 40.92821 -76.26948 18913 ft 421 kts 112°
2026-05-06 19:36 40.91946 -76.23326 18742 ft 409 kts 112°
2026-05-06 19:36 40.91080 -76.19770 18354 ft 404 kts 112°
2026-05-06 19:37 40.90224 -76.16271 17759 ft 395 kts 112°
2026-05-06 19:37 40.89388 -76.12860 17114 ft 387 kts 113°
2026-05-06 19:37 40.88567 -76.09513 16502 ft 379 kts 113°
2026-05-06 19:37 40.87761 -76.06231 15905 ft 372 kts 113°
2026-05-06 19:38 40.86963 -76.02977 15313 ft 374 kts 113°
2026-05-06 19:38 40.86155 -75.99698 14742 ft 377 kts 113°
2026-05-06 19:38 40.85339 -75.96399 14169 ft 379 kts 113°
2026-05-06 19:38 40.84520 -75.93083 13568 ft 381 kts 113°
2026-05-06 19:39 40.83702 -75.89762 13089 ft 378 kts 113°
2026-05-06 19:39 40.82907 -75.86515 12953 ft 364 kts 113°
2026-05-06 19:39 40.82149 -75.83412 12980 ft 347 kts 114°
2026-05-06 19:39 40.81422 -75.80455 12985 ft 331 kts 114°
2026-05-06 19:40 40.80725 -75.77632 12971 ft 316 kts 115°
2026-05-06 19:40 40.80059 -75.74944 12989 ft 301 kts 115°
2026-05-06 19:40 40.79430 -75.72410 12990 ft 289 kts 115°
2026-05-06 19:40 40.78800 -75.69897 12837 ft 287 kts 116°
2026-05-06 19:41 40.78172 -75.67409 12658 ft 285 kts 116°
2026-05-06 19:41 40.77544 -75.64925 12508 ft 285 kts 116°
2026-05-06 19:41 40.76922 -75.62451 12354 ft 284 kts 116°
2026-05-06 19:41 40.76306 -75.59986 12205 ft 282 kts 116°
2026-05-06 19:42 40.75692 -75.57531 12050 ft 281 kts 116°
2026-05-06 19:42 40.75078 -75.55081 11894 ft 281 kts 116°
2026-05-06 19:42 40.74464 -75.52636 11753 ft 280 kts 116°
2026-05-06 19:42 40.73855 -75.50197 11622 ft 280 kts 116°
2026-05-06 19:43 40.73244 -75.47759 11507 ft 280 kts 116°
2026-05-06 19:43 40.72637 -75.45327 11383 ft 279 kts 115°
2026-05-06 19:43 40.72089 -75.42864 11258 ft 280 kts 112°
2026-05-06 19:43 40.71593 -75.40375 11121 ft 281 kts 111°
2026-05-06 19:44 40.71115 -75.37873 11004 ft 281 kts 111°
2026-05-06 19:44 40.70639 -75.35373 10879 ft 281 kts 111°
2026-05-06 19:44 40.70158 -75.32884 10758 ft 280 kts 111°
2026-05-06 19:44 40.69672 -75.30405 10638 ft 279 kts 112°
2026-05-06 19:45 40.69181 -75.27930 10509 ft 279 kts 112°
2026-05-06 19:45 40.68688 -75.25462 10440 ft 279 kts 112°
2026-05-06 19:45 40.68194 -75.22993 10365 ft 278 kts 112°
2026-05-06 19:45 40.67701 -75.20533 10294 ft 278 kts 112°
2026-05-06 19:46 40.67115 -75.18134 10221 ft 272 kts 120°
2026-05-06 19:46 40.66350 -75.15871 10120 ft 268 kts 126°
2026-05-06 19:46 40.65427 -75.13763 10014 ft 263 kts 133°
2026-05-06 19:46 40.64367 -75.11832 10000 ft 258 kts 139°
2026-05-06 19:47 40.63198 -75.10079 10000 ft 254 kts 143°
2026-05-06 19:47 40.61992 -75.08368 10004 ft 255 kts 143°
2026-05-06 19:47 40.60787 -75.06654 9997 ft 256 kts 143°
2026-05-06 19:47 40.59581 -75.04940 9994 ft 255 kts 143°
2026-05-06 19:48 40.58387 -75.03201 9999 ft 258 kts 139°
2026-05-06 19:48 40.57311 -75.01280 9996 ft 264 kts 133°
2026-05-06 19:48 40.56388 -74.99168 9993 ft 269 kts 125°
2026-05-06 19:48 40.55640 -74.96892 9994 ft 273 kts 119°
2026-05-06 19:49 40.54955 -74.94560 9993 ft 273 kts 120°
2026-05-06 19:49 40.54265 -74.92232 9994 ft 273 kts 120°
2026-05-06 19:49 40.53572 -74.89905 9994 ft 273 kts 120°
2026-05-06 19:49 40.52877 -74.87587 9995 ft 273 kts 120°
2026-05-06 19:50 40.52180 -74.85273 9997 ft 272 kts 120°
2026-05-06 19:50 40.51481 -74.82954 9996 ft 273 kts 120°
2026-05-06 19:50 40.50797 -74.80669 9996 ft 273 kts 120°
2026-05-06 19:50 40.50094 -74.78321 9997 ft 272 kts 120°
2026-05-06 19:51 40.49413 -74.76042 9990 ft 271 kts 120°
2026-05-06 19:51 40.48719 -74.73734 9994 ft 272 kts 120°
2026-05-06 19:51 40.48022 -74.71421 9995 ft 272 kts 120°
2026-05-06 19:51 40.47328 -74.69116 9994 ft 271 kts 120°
2026-05-06 19:52 40.46634 -74.66811 9997 ft 272 kts 120°
2026-05-06 19:52 40.45936 -74.64496 9995 ft 273 kts 120°
2026-05-06 19:52 40.45235 -74.62175 9812 ft 273 kts 120°
2026-05-06 19:52 40.44540 -74.59867 9613 ft 272 kts 118°
2026-05-06 19:53 40.43996 -74.57472 9401 ft 276 kts 109°
2026-05-06 19:53 40.43723 -74.54974 9186 ft 279 kts 98°
2026-05-06 19:53 40.43728 -74.52416 8994 ft 281 kts 89°
2026-05-06 19:53 40.44020 -74.49871 8779 ft 282 kts 79°
2026-05-06 19:54 40.44588 -74.47404 8585 ft 283 kts 70°
2026-05-06 19:54 40.45252 -74.44974 8390 ft 281 kts 71°
2026-05-06 19:54 40.45903 -74.42569 8188 ft 279 kts 71°
2026-05-06 19:54 40.46548 -74.40174 8042 ft 278 kts 71°
2026-05-06 19:55 40.47190 -74.37785 8002 ft 277 kts 71°
2026-05-06 19:55 40.47830 -74.35402 7997 ft 277 kts 71°
2026-05-06 19:55 40.48472 -74.33007 8010 ft 278 kts 71°
2026-05-06 19:55 40.49111 -74.30618 8011 ft 277 kts 71°
2026-05-06 19:56 40.49748 -74.28235 8014 ft 276 kts 71°
2026-05-06 19:56 40.50386 -74.25855 8015 ft 276 kts 71°
2026-05-06 19:56 40.51025 -74.23470 8020 ft 277 kts 71°
2026-05-06 19:56 40.51662 -74.21086 8016 ft 277 kts 71°
2026-05-06 19:57 40.52299 -74.18700 8014 ft 276 kts 71°
2026-05-06 19:57 40.52934 -74.16315 8018 ft 277 kts 71°
2026-05-06 19:57 40.53570 -74.13925 8010 ft 277 kts 71°
2026-05-06 19:57 40.54205 -74.11532 7878 ft 277 kts 71°
2026-05-06 19:58 40.54944 -74.09216 7708 ft 272 kts 60°
2026-05-06 19:58 40.55939 -74.07133 7536 ft 269 kts 50°
2026-05-06 19:58 40.57161 -74.05294 7373 ft 266 kts 39°
2026-05-06 19:58 40.58570 -74.03740 7203 ft 262 kts 30°
2026-05-06 19:59 40.60091 -74.02436 7034 ft 261 kts 27°
2026-05-06 19:59 40.61609 -74.01150 6866 ft 258 kts 27°
2026-05-06 19:59 40.63116 -73.99865 6687 ft 259 kts 26°
2026-05-06 19:59 40.64680 -73.98742 6521 ft 255 kts 18°
2026-05-06 20:00 40.66274 -73.97759 6360 ft 252 kts 17°
2026-05-06 20:00 40.67881 -73.96851 6186 ft 250 kts 17°
2026-05-06 20:00 40.69488 -73.95949 6014 ft 251 kts 17°
2026-05-06 20:00 40.71096 -73.95043 5863 ft 251 kts 18°
2026-05-06 20:01 40.72706 -73.94147 5703 ft 251 kts 17°
2026-05-06 20:01 40.74320 -73.93263 5541 ft 251 kts 15°
2026-05-06 20:01 40.75911 -73.92388 5414 ft 243 kts 17°
2026-05-06 20:01 40.77444 -73.91556 5262 ft 234 kts 16°
2026-05-06 20:02 40.78914 -73.90731 5098 ft 229 kts 16°
2026-05-06 20:02 40.80376 -73.89899 4945 ft 229 kts 17°
2026-05-06 20:02 40.81839 -73.89075 4801 ft 229 kts 16°
2026-05-06 20:02 40.83299 -73.88242 4647 ft 229 kts 18°
2026-05-06 20:03 40.84741 -73.87420 4493 ft 229 kts 17°
2026-05-06 20:03 40.86209 -73.86606 4176 ft 229 kts 18°
2026-05-06 20:03 40.87683 -73.85799 3792 ft 228 kts 15°
2026-05-06 20:03 40.89110 -73.84983 3425 ft 217 kts 17°
2026-05-06 20:04 40.90462 -73.84225 3096 ft 206 kts 16°
2026-05-06 20:04 40.91726 -73.83503 2978 ft 189 kts 14°
2026-05-06 20:04 40.92892 -73.82777 2876 ft 184 kts 16°
2026-05-06 20:04 40.94055 -73.82052 2588 ft 183 kts 17°
2026-05-06 20:05 40.95156 -73.81209 2309 ft 190 kts 41°
2026-05-06 20:05 40.95716 -73.79660 2061 ft 185 kts 90°
2026-05-06 20:05 40.95386 -73.78175 2001 ft 160 kts 140°
2026-05-06 20:05 40.94508 -73.77479 2011 ft 143 kts 171°
2026-05-06 20:06 40.93567 -73.77136 2006 ft 136 kts 176°
2026-05-06 20:06 40.92678 -73.76847 2004 ft 128 kts 178°
2026-05-06 20:06 40.91809 -73.76736 1998 ft 124 kts 192°
2026-05-06 20:06 40.90971 -73.76993 2004 ft 126 kts 210°
2026-05-06 20:07 40.90192 -73.77537 1998 ft 125 kts 214°
2026-05-06 20:07 40.89448 -73.78097 1994 ft 121 kts 216°
2026-05-06 20:07 40.88726 -73.78667 1996 ft 121 kts 217°
2026-05-06 20:07 40.88029 -73.79227 1994 ft 115 kts 217°
2026-05-06 20:08 40.87344 -73.79787 1963 ft 117 kts 216°
2026-05-06 20:08 40.86652 -73.80356 1863 ft 117 kts 216°
2026-05-06 20:08 40.85968 -73.80920 1739 ft 115 kts 217°
2026-05-06 20:08 40.85519 -73.81292 1641 ft 116 kts 217°
2026-05-06 20:09 40.84833 -73.81860 1498 ft 115 kts 218°
2026-05-06 20:09 40.84135 -73.82439 1348 ft 119 kts 217°
2026-05-06 20:09 40.83431 -73.83020 1172 ft 121 kts 215°
2026-05-06 20:09 40.82716 -73.83613 1012 ft 123 kts 213°
2026-05-06 20:10 40.81988 -73.84215 842 ft 123 kts 213°
2026-05-06 20:10 40.81003 -73.85031 640 ft 126 kts 213°
2026-05-06 20:10 40.80502 -73.85445 517 ft 128 kts 212°
2026-05-06 20:10 40.79748 -73.86069 344 ft 129 kts 213°
2026-05-06 20:11 40.78974 -73.86709 170 ft 132 kts 212°
2026-05-06 20:11 40.78204 -73.87354 33 ft 130 kts 211°
2026-05-06 20:11 40.77553 -73.87889 24 ft 73 kts 212°
2026-05-06 20:11 40.77301 -73.88097 22 ft 32 kts 212°
2026-05-06 20:12 40.77113 -73.88242 25 ft 22 kts 189°
2026-05-06 20:12 40.77070 -73.88131 23 ft 14 kts 33°
2026-05-06 20:12 40.77182 -73.88041 22 ft 26 kts 32°
2026-05-06 20:12 40.77365 -73.87897 21 ft 34 kts 30°
2026-05-06 20:13 40.77535 -73.87753 21 ft 20 kts 33°
2026-05-06 20:13 40.77629 -73.87671 23 ft 5 kts 34°
2026-05-06 20:13 40.77629 -73.87659 22 ft 0 kts 111°
2026-05-06 20:13 40.77628 -73.87658 22 ft 1 kts 120°
2026-05-06 20:14 40.77592 -73.87583 20 ft 15 kts 131°
2026-05-06 20:14 40.77626 -73.87477 22 ft 18 kts 35°
2026-05-06 20:14 40.77708 -73.87323 22 ft 18 kts 71°
2026-05-06 20:14 40.77728 -73.87199 17 ft 14 kts 97°
2026-05-06 20:15 40.77687 -73.87083 15 ft 9 kts 123°
2026-05-06 20:15 40.77684 -73.87078 15 ft 0 kts 123°
2026-05-06 20:17 40.77683 -73.87077 15 ft 6 kts 123°
2026-05-06 20:17 40.77695 -73.86989 13 ft 5 kts 360°
2026-05-06 20:18 40.77710 -73.87008 13 ft 3 kts 311°
2026-05-06 20:18 40.77762 -73.87100 14 ft 13 kts 301°
2026-05-06 20:18 40.77803 -73.87194 14 ft 13 kts 300°
2026-05-06 20:18 40.77877 -73.87350 14 ft 22 kts 302°
2026-05-06 20:19 40.77920 -73.87440 15 ft 4 kts 302°
2026-05-06 20:19 40.77924 -73.87448 17 ft 0 kts 302°
2026-05-06 20:21 40.77960 -73.87523 16 ft 22 kts 302°
2026-05-06 20:21 40.77994 -73.87664 15 ft 13 kts 236°
2026-05-06 20:22 40.77939 -73.87719 20 ft 11 kts 212°
2026-05-06 20:22 40.77819 -73.87817 20 ft 30 kts 212°
2026-05-06 20:22 40.77628 -73.87979 21 ft 32 kts 213°
2026-05-06 20:22 40.77472 -73.88107 20 ft 19 kts 212°
2026-05-06 20:23 40.77367 -73.88193 20 ft 16 kts 212°
2026-05-06 20:23 40.77289 -73.88266 21 ft 11 kts 235°
2026-05-06 20:23 40.77286 -73.88359 19 ft 9 kts 268°
2026-05-06 20:23 40.77281 -73.88426 19 ft 6 kts 263°
2026-05-06 20:24 40.77286 -73.88458 19 ft 2 kts 304°
2026-05-06 20:24 40.77298 -73.88473 20 ft 6 kts 316°
2026-05-06 20:24 40.77319 -73.88482 19 ft 1 kts
2026-05-06 20:24 40.77320 -73.88482 19 ft 0 kts
2026-05-06 20:25 40.77328 -73.88481 19 ft 0 kts
2026-05-06 20:25 40.77328 -73.88480 19 ft 0 kts